Theta_e
321 323 325 328 332 341 344 348 345 348 347 343 343 342 340 341 342 341 344 346 347 347 347 340 341 343 342 342 343 343 343 344 343 338 336 339 340 341 339 338 337 338 337
319 321 323 326 330 334 343 345 346 346 345 345 344 342 342 341 341 342 343 344 346 346 343 343 343 346 342 346 346 343 343 341 343 336 334 327 331 335 336 336 334 336 334
318 319 321 324 327 331 338 344 346 347 348 347 344 344 345 344 339 340 340 342 343 344 344 344 346 348 347 345 343 344 342 338 337 338 334 326 322 325 329 331 329 331 329
319 320 321 321 328 328 335 343 347 347 350 350 346 346 341 338 339 341 340 341 343 343 344 345 347 349 346 345 345 344 341 338 331 333 330 332 330 321 315 322 324 324 323
319 319 320 322 323 329 331 338 344 347 350 351 349 347 345 344 341 341 342 342 344 346 345 347 347 345 342 338 335 334 334 333 328 329 328 327 324 324 318 312 315 317 317
320 320 321 323 324 330 334 336 340 342 349 351 351 349 346 344 341 340 339 342 342 342 342 340 340 337 335 332 332 334 332 332 331 327 325 322 318 315 315 313 311 310 311
318 319 319 320 322 325 332 335 339 339 345 351 350 350 348 348 345 342 340 333 331 331 333 334 333 332 333 333 333 332 330 329 326 325 321 319 317 316 312 309 307 306 309
319 318 319 321 321 325 332 334 335 338 343 349 349 350 348 347 345 342 334 332 331 330 333 332 332 333 332 331 329 327 323 322 319 317 316 314 313 312 310 308 306 303 304
317 318 319 321 323 324 329 335 336 338 343 347 349 348 347 347 343 338 335 331 332 332 331 331 330 329 327 324 322 318 316 317 316 315 314 312 310 311 310 308 306 304 299
317 317 318 321 322 323 326 339 338 337 341 348 348 347 346 345 339 338 332 334 330 329 328 328 326 322 320 318 317 315 315 313 312 311 310 309 309 308 308 308 307 306 302
316 317 319 320 322 323 326 336 339 336 341 345 344 341 339 339 335 332 331 327 327 328 326 323 320 317 315 315 314 313 312 310 308 310 308 307 307 306 306 306 305 303 302
317 318 318 322 322 323 327 330 337 337 340 339 336 335 334 332 328 329 329 330 328 327 323 319 316 314 314 314 312 310 310 308 307 306 306 304 303 304 304 303 302 302 302
315 317 319 321 322 325 327 331 333 330 328 328 327 326 326 325 324 325 326 327 324 321 318 315 313 312 312 311 310 309 308 307 306 306 304 302 303 301 302 302 302 301 299
314 317 318 320 321 323 326 327 326 325 325 323 321 320 320 320 321 321 322 323 320 318 316 314 312 312 311 309 308 307 306 304 303 303 302 301 301 300 300 299 299 298 297
311 315 317 318 319 321 325 327 323 321 321 320 318 317 318 319 319 319 320 319 317 315 314 313 311 310 308 306 306 305 304 301 299 299 299 299 292 288 289 296 297 296 295
312 312 314 317 317 319 322 325 321 319 320 317 315 316 317 317 317 316 317 316 314 314 312 310 308 307 303 292 295 300 301 299 298 297 296 292 289 288 287 287 286 287 291
312 312 312 313 317 318 321 322 323 319 317 315 313 312 315 313 315 313 314 313 312 312 310 308 307 303 298 291 292 294 300 298 294 291 290 290 289 289 290 288 286 286 286
313 313 314 314 314 318 320 323 322 318 315 312 311 311 311 311 313 311 313 312 312 310 308 306 303 298 294 290 290 291 294 291 291 291 291 291 291 290 290 291 290 290 290
314 314 315 316 316 315 318 320 318 315 312 310 309 310 311 309 310 310 312 312 309 308 305 303 299 295 291 289 289 292 295 294 293 293 294 294 292 286 286 289 289 290 290
314 315 316 315 317 315 316 317 316 313 310 309 310 311 310 309 311 311 310 310 308 304 302 299 298 293 291 288 289 292 296 294 293 293 293 287 290 285 284 290 291 290 291
312 314 315 315 316 316 314 315 316 312 312 313 310 309 309 312 312 310 308 305 304 300 299 298 298 296 292 290 289 289 296 295 292 292 292 290 285 285 284 284 291 288 288
308 310 310 313 316 316 313 313 314 315 313 311 310 308 309 310 308 306 305 304 302 297 297 296 297 298 295 290 288 289 290 292 292 291 293 289 285 285 285 284 282 282 283
308 310 311 312 316 317 314 311 314 316 314 311 308 308 307 306 305 304 302 301 298 298 298 296 295 296 296 292 288 288 288 288 291 291 288 286 285 285 283 282 281 281 289
307 308 309 310 313 316 315 313 315 317 314 310 308 306 302 302 302 301 302 301 297 297 295 294 293 292 293 291 291 290 290 287 288 286 287 285 285 285 286 283 284 288 289
304 306 307 308 311 315 315 314 313 316 312 309 307 305 301 302 300 300 301 298 299 297 295 293 292 289 288 288 289 288 287 287 286 286 285 285 285 285 286 287 288 288 287
304 305 306 307 309 312 315 313 312 316 312 308 306 304 300 301 300 297 296 290 291 290 291 291 290 289 289 288 288 288 288 287 285 285 284 284 285 285 285 286 285 285 284
Wind_Speed
24 22 20 17 17 16 19 20 21 19 16 15 15 13 13 12 12 12 13 13 13 14 12 9 10 10 8 7 8 8 8 3 3 5 6 3 7 6 3 2 3 4 1
21 21 22 19 18 19 19 21 23 22 19 15 13 12 12 12 12 11 12 13 14 13 12 11 10 11 9 7 5 6 6 5 5 5 4 6 3 6 5 1 1 4 4
21 20 21 20 20 19 19 21 24 24 20 20 13 12 12 11 12 12 11 13 15 13 14 13 10 9 8 5 7 7 8 5 1 4 3 3 4 4 3 8 3 4 3
25 23 23 24 19 20 18 22 22 24 21 22 18 19 15 15 13 12 12 12 15 15 15 14 11 8 7 7 6 3 3 4 4 2 2 3 4 3 4 2 2 2 4
29 27 27 26 25 21 19 19 22 22 22 22 19 16 16 12 12 11 15 13 13 15 15 11 9 6 4 5 7 6 6 4 4 4 5 3 3 3 5 7 5 4 4
29 28 28 27 24 21 20 19 22 22 23 23 22 20 20 16 13 14 13 9 7 6 8 8 8 8 8 8 7 8 10 7 5 4 3 4 3 3 4 5 6 6 6
22 22 25 26 24 24 23 20 23 23 23 24 24 20 20 18 18 17 11 11 8 7 9 11 10 8 7 8 8 7 7 6 5 3 3 1 1 0 2 4 5 6 5
19 23 24 22 23 21 20 20 22 23 23 23 24 20 19 13 12 15 12 9 9 10 13 12 11 11 11 9 8 7 6 6 5 5 2 3 3 1 1 2 3 5 6
20 20 22 20 21 21 16 19 20 22 22 23 20 20 18 17 14 16 15 11 12 11 12 12 12 13 13 12 10 8 8 7 6 6 4 4 3 2 2 1 1 3 4
19 18 17 18 18 18 18 17 19 21 20 20 19 17 17 14 15 16 16 17 13 15 14 15 16 15 13 12 10 9 9 9 6 6 6 5 4 4 2 1 1 2 4
13 16 11 6 10 15 16 17 18 20 18 17 16 14 12 13 16 16 16 17 17 17 17 17 16 15 14 12 10 9 9 8 7 7 7 6 4 4 3 2 2 1 1
10 12 14 9 8 10 10 13 15 17 12 15 13 13 13 16 16 16 18 18 18 18 17 17 16 15 13 12 12 11 9 9 8 8 7 7 5 5 3 3 1 1 1
5 8 8 10 11 11 13 12 11 11 13 14 14 12 15 16 17 17 19 19 19 18 17 16 16 15 13 12 11 11 10 9 8 7 7 7 6 5 4 2 1 2 2
6 7 7 9 10 12 14 15 13 13 14 15 15 16 17 18 17 18 18 18 18 18 17 16 16 15 14 12 11 11 10 10 8 8 7 6 5 5 4 3 3 2 2
2 6 10 10 11 12 13 16 13 14 15 16 17 17 17 18 18 19 18 18 18 16 17 16 16 14 12 10 12 12 11 11 10 8 8 7 10 10 8 3 4 4 2
6 4 6 10 12 13 13 14 14 14 15 17 17 17 18 18 19 18 18 17 17 17 16 16 16 14 9 12 9 12 11 11 10 9 8 8 9 7 7 7 6 5 4
5 7 7 5 8 11 14 15 16 15 14 15 16 18 19 20 19 19 20 19 18 17 16 16 15 13 12 12 11 9 7 8 8 7 6 6 5 5 5 5 3 3 2
15 10 11 8 8 9 12 13 14 15 14 16 18 19 18 19 19 19 19 18 16 16 14 14 14 13 11 15 15 13 11 9 9 9 8 7 6 5 3 3 4 1 1
15 9 7 9 11 9 11 14 15 16 14 16 18 19 20 20 20 19 20 17 16 15 14 15 15 14 14 16 16 12 11 10 9 8 8 7 6 9 3 3 1 2 3
20 15 14 13 9 13 11 14 18 19 17 18 19 20 18 20 21 20 19 17 15 15 12 14 13 14 14 17 18 11 8 10 7 7 8 4 3 10 5 3 4 4 2
11 13 16 15 17 16 16 17 17 20 21 19 17 17 17 19 19 19 16 15 16 14 13 14 12 14 15 16 17 13 9 7 7 6 5 6 9 8 5 6 5 3 4
14 16 14 18 17 17 17 19 19 18 18 18 18 19 18 15 16 20 17 17 16 15 14 14 11 10 13 17 15 9 3 10 6 4 4 5 10 8 6 5 2 2 2
15 13 13 16 15 15 18 18 18 19 20 20 19 18 18 16 17 19 18 14 14 13 13 11 11 10 10 10 13 11 8 8 6 4 6 10 10 8 3 2 1 2 4
15 16 16 14 17 16 18 19 17 18 21 20 19 18 18 18 16 13 13 13 13 14 12 11 10 9 9 9 9 7 6 9 7 7 5 5 5 3 2 3 4 2 2
20 20 17 16 16 18 16 18 18 19 21 20 19 18 15 18 17 14 13 12 10 13 14 12 11 12 11 11 13 12 9 7 8 8 5 5 6 6 5 4 2 2 2
21 18 20 19 17 17 16 17 18 20 23 21 17 16 15 15 14 14 12 12 12 16 13 16 12 7 9 17 17 16 15 15 17 6 6 6 6 6 5 4 4 4 3
Wind_Direction
222 216 209 213 205 197 188 183 187 187 187 193 193 191 196 194 202 197 197 186 195 195 196 219 200 201 209 198 198 209 237 243 266 269 257 209 211 227 227 307 342 346 357
225 224 217 201 206 207 192 191 194 188 192 196 196 198 196 193 199 192 189 191 195 194 195 214 199 195 213 220 221 213 227 229 223 255 270 270 243 214 181 84 248 99 318
219 222 220 211 196 211 202 196 196 193 192 200 194 196 193 193 192 191 190 191 195 193 202 203 210 190 208 213 220 217 217 225 51 283 286 263 264 12 280 185 227 57 326
227 224 230 219 194 205 214 201 195 197 193 198 193 196 196 192 191 189 189 186 191 193 194 198 206 205 199 211 204 199 166 136 157 142 262 291 319 270 275 267 340 247 275
232 236 229 232 213 196 204 210 200 196 195 191 205 193 202 196 183 190 181 183 185 192 193 194 193 167 140 130 141 132 145 159 149 163 162 206 255 257 270 276 292 320 302
223 224 241 233 233 199 194 202 203 197 196 190 202 197 195 191 183 183 180 170 157 147 142 137 141 138 148 143 148 163 175 199 191 182 187 216 225 238 263 266 285 310 315
241 230 231 237 230 224 182 195 200 203 194 188 190 205 192 202 184 175 162 153 144 145 152 143 147 151 149 149 154 156 142 161 163 165 150 159 205 297 299 286 280 297 318
239 228 234 229 234 225 173 190 203 204 194 189 189 197 197 199 186 164 156 161 160 151 151 144 146 145 148 145 139 134 130 118 121 131 106 125 94 62 13 306 297 288 290
242 239 228 230 220 233 193 186 206 204 195 188 187 191 191 195 158 161 154 156 151 150 155 146 141 144 146 149 145 138 137 133 137 124 133 122 122 109 69 39 214 280 297
230 244 250 220 226 219 199 184 203 207 199 187 186 188 184 184 155 149 159 159 145 143 145 144 151 150 148 147 144 143 145 144 140 131 142 140 123 140 143 74 11 290 293
232 217 222 237 217 223 220 175 191 205 193 178 182 173 162 156 143 147 148 142 146 149 153 155 151 149 148 146 145 144 146 139 137 137 143 140 147 119 131 151 151 203 291
212 215 238 154 226 204 189 184 191 199 163 165 162 161 154 148 143 152 151 150 150 155 155 152 150 151 148 149 150 149 149 147 154 154 148 137 137 142 152 159 167 208 304
163 159 147 166 192 184 190 165 175 159 153 153 147 151 148 148 154 155 154 154 150 151 151 151 150 148 147 153 151 142 155 152 150 151 141 139 148 153 138 124 63 24 350
141 150 166 183 193 185 188 171 168 157 159 157 156 158 156 154 155 154 154 153 150 149 150 150 147 148 151 150 152 146 146 139 136 131 131 137 137 135 117 95 75 51 7
179 174 176 179 182 189 193 169 168 166 164 162 162 162 159 156 155 153 153 149 150 146 148 147 144 149 149 155 156 147 145 138 138 138 141 97 73 65 49 16 51 36 18
141 204 257 168 180 184 191 178 169 172 170 166 162 159 159 159 154 149 147 149 148 150 145 149 146 146 150 99 123 141 146 149 152 146 123 123 135 110 91 77 54 28 8
248 174 229 223 186 189 191 186 170 171 179 171 162 158 160 153 153 149 150 151 152 148 151 146 146 144 129 119 98 114 124 129 123 118 126 141 118 99 105 122 154 149 104
292 265 191 209 220 214 197 181 174 177 176 168 164 161 156 153 152 152 153 150 151 151 143 142 139 135 145 123 111 116 131 134 145 156 155 148 141 106 125 134 100 94 94
285 289 278 204 194 220 203 184 173 176 175 172 167 164 164 155 156 158 155 154 147 145 142 144 142 147 141 135 140 168 145 149 151 157 154 140 133 123 126 119 113 225 185
243 259 247 263 230 190 194 194 179 176 181 175 175 166 162 163 159 155 155 148 144 142 143 141 145 137 140 153 175 191 151 151 153 156 141 73 79 137 149 210 208 229 133
296 279 270 272 246 179 192 200 185 185 183 175 169 169 162 166 157 147 148 141 147 140 146 133 141 149 155 164 188 216 154 151 150 154 154 162 146 144 166 250 297 18 4
257 251 252 252 250 174 187 198 200 186 176 175 171 166 164 161 153 148 147 150 143 140 140 140 149 158 155 163 194 184 95 145 142 148 165 123 151 163 190 243 49 38 300
254 253 265 256 242 195 185 205 200 185 174 173 170 163 159 157 155 150 147 146 146 144 142 156 157 154 150 158 175 171 130 102 105 97 113 132 160 166 167 235 252 261 235
270 272 265 253 263 238 198 199 199 183 172 172 169 161 155 155 157 149 152 150 154 142 156 160 159 150 150 158 169 169 147 117 102 109 135 136 142 163 142 191 219 241 331
259 259 260 256 252 257 222 193 194 179 168 171 168 168 161 158 159 148 156 150 167 148 159 163 159 158 171 177 166 162 158 159 137 131 136 168 190 195 200 211 214 186 219
257 258 260 261 257 263 234 189 189 185 169 172 173 168 164 159 154 139 126 82 120 130 130 140 148 146 145 151 150 158 151 155 144 149 175 191 198 199 197 191 204 217 226